GW4436 Weather Reports


Display with metric or nautical units.
time (UTC)temp
F
wind
direction
speed
MPH
gust
MPH
rain 1hr
in
rain 24hr
in
rain mn
in
humidity
%
barometer
mb
20260510105504 69 360 4.0 6.0 0.00 0.00 0.00 95 1016.3
20260510104510 69 359 4.0 5.0 0.00 0.00 0.00 95 1016.3
20260510104001 69 359 3.0 4.0 0.00 0.00 0.00 95 1016.3
20260510103502 69 329 2.0 5.0 0.00 0.00 0.00 95 1016.2
20260510103003 69 354 3.0 5.0 0.00 0.00 0.00 95 1016.2
20260510102503 69 339 3.0 5.0 0.00 0.00 0.00 95 1016.0
20260510102003 69 352 3.0 5.0 0.00 0.00 0.00 95 1016.0
20260510101504 69 351 2.0 4.0 0.00 0.00 0.00 95 1015.9
20260510101004 69 360 2.0 4.0 0.00 0.00 0.00 95 1015.7
20260510100505 69 359 3.0 5.0 0.00 0.00 0.00 95 1015.7
20260510100005 68 330 4.0 5.0 0.00 0.00 0.00 94 1015.6
20260510095504 69 345 3.0 4.0 0.00 0.00 0.00 94 1015.4
20260510095007 69 342 1.0 2.0 0.00 0.00 0.00 94 1015.3
20260510094506 69 331 1.0 2.0 0.00 0.00 0.00 95 1015.3
20260510094004 69 345 0.0 1.0 0.00 0.00 0.00 95 1015.3
20260510093505 69 360 0.0 2.0 0.00 0.00 0.00 95 1015.1
20260510093003 69 360 0.0 2.0 0.00 0.00 0.00 95 1015.1
20260510092503 69 360 0.0 2.0 0.00 0.00 0.00 95 1015.1
20260510092003 69 313 0.0 2.0 0.00 0.00 0.00 95 1015.0
20260510091502 69 313 0.0 2.0 0.00 0.00 0.00 95 1015.1
20260510091002 69 313 0.0 2.0 0.00 0.00 0.00 95 1015.0
20260510090503 69 313 0.0 2.0 0.00 0.00 0.00 95 1014.9
20260510090007 69 313 0.0 1.0 0.00 0.00 0.00 95 1014.9
20260510085502 69 313 0.0 2.0 0.00 0.00 0.00 95 1014.9
20260510085002 69 313 0.0 2.0 0.00 0.00 0.00 95 1014.7
20260510084507 69 313 0.0 2.0 0.00 0.00 0.00 94 1014.7
20260510084007 69 313 0.0 2.0 0.00 0.00 0.00 94 1014.7
20260510083505 69 338 2.0 2.0 0.00 0.00 0.00 94 1014.7
20260510083020 69 1 1.0 2.0 0.00 0.00 0.00 94 1014.5
20260510082507 69 75 0.0 2.0 0.00 0.00 0.00 94 1014.6
20260510082007 69 75 0.0 2.0 0.00 0.00 0.00 94 1014.6
20260510081505 69 75 0.0 3.0 0.00 0.00 0.00 94 1014.6
20260510081003 69 80 1.0 3.0 0.00 0.00 0.00 94 1014.5
20260510080503 69 49 1.0 2.0 0.00 0.00 0.00 94 1014.6
20260510080010 69 53 1.0 2.0 0.00 0.00 0.00 94 1014.7
20260510075502 69 38 1.0 2.0 0.00 0.00 0.00 94 1014.6
20260510075003 69 13 0.0 2.0 0.00 0.00 0.00 94 1014.7
20260510074510 69 57 1.0 2.0 0.00 0.00 0.00 94 1014.6
20260510074003 69 294 0.0 2.0 0.00 0.00 0.00 95 1014.8
20260510073503 69 294 0.0 2.0 0.00 0.00 0.00 94 1014.8
20260510073009 69 319 0.0 3.0 0.00 0.00 0.00 94 1014.8
20260510072509 69 311 2.0 4.0 0.00 0.00 0.00 94 1014.9
20260510072005 69 325 3.0 4.0 0.00 0.00 0.00 94 1014.7
20260510071513 68 300 3.0 4.0 0.00 0.00 0.00 94 1014.7
20260510071007 68 71 0.0 3.0 0.00 0.00 0.00 94 1014.1
20260510070505 68 101 1.0 6.0 0.00 0.00 0.00 94 1013.9
20260510070003 68 108 1.0 6.0 0.00 0.00 0.00 94 1014.1
20260510065504 68 86 5.0 6.0 0.00 0.00 0.00 94 1014.0
20260510065003 68 309 1.0 2.0 0.00 0.00 0.00 94 1015.0
20260510064508 68 34 0.0 1.0 0.00 0.00 0.00 94 1015.0
20260510064003 68 34 0.0 2.0 0.00 0.00 0.00 94 1014.9
20260510063504 68 34 0.0 2.0 0.00 0.00 0.00 94 1014.7
20260510063009 68 34 0.0 2.0 0.00 0.00 0.00 94 1014.7
20260510062505 68 34 0.0 2.0 0.00 0.00 0.00 94 1014.8
20260510062009 68 34 0.0 2.0 0.00 0.00 0.00 94 1014.8
20260510061512 68 44 1.0 2.0 0.00 0.00 0.00 94 1014.7
20260510061004 68 43 0.0 2.0 0.00 0.00 0.00 94 1014.8
20260510060507 68 121 0.0 2.0 0.00 0.00 0.00 94 1014.9
20260510060024 68 145 0.0 2.0 0.00 0.00 0.00 94 1015.0
20260510055506 68 145 0.0 2.0 0.00 0.00 0.00 94 1014.9
20260510055003 68 141 0.0 2.0 0.00 0.00 0.00 94 1014.9
20260510054504 68 145 0.0 2.0 0.00 0.00 0.00 94 1015.0
20260510054004 68 105 1.0 2.0 0.00 0.00 0.00 94 1015.0
20260510053505 68 41 0.0 2.0 0.00 0.00 0.00 94 1015.2
20260510053008 68 41 0.0 2.0 0.00 0.00 0.00 94 1015.3
20260510052504 68 41 0.0 1.0 0.00 0.00 0.00 94 1015.3
20260510052004 68 41 0.0 2.0 0.00 0.00 0.00 94 1015.3
20260510051511 68 41 0.0 2.0 0.00 0.00 0.00 94 1015.3
20260510051009 68 41 0.0 1.0 0.00 0.00 0.00 94 1015.5
20260510050504 68 41 0.0 1.0 0.00 0.00 0.00 94 1015.5
20260510050015 68 41 0.0 1.0 0.00 0.00 0.00 94 1015.6
20260510045511 68 41 0.0 2.0 0.00 0.00 0.00 94 1015.6
20260510045009 68 41 0.0 2.0 0.00 0.00 0.00 94 1015.7
20260510044530 69 41 0.0 2.0 0.00 0.00 0.00 94 1015.8
20260510044009 69 41 0.0 2.0 0.00 0.00 0.00 94 1015.7
20260510043504 69 41 0.0 2.0 0.00 0.00 0.00 94 1015.9
20260510043008 69 41 0.0 1.0 0.00 0.00 0.00 94 1015.8
20260510042503 69 41 0.0 2.0 0.00 0.00 0.00 94 1015.6
20260510042002 69 41 0.0 2.0 0.00 0.00 0.00 94 1015.6
20260510041513 69 41 0.0 2.0 0.00 0.00 0.00 94 1015.7
20260510041004 69 41 0.0 1.0 0.00 0.00 0.00 94 1015.6
20260510040508 69 41 0.0 2.0 0.00 0.00 0.00 94 1015.6
20260510040013 69 41 0.0 2.0 0.00 0.00 0.00 94 1015.6
20260510035504 69 41 0.0 2.0 0.00 0.00 0.00 94 1015.7
20260510035009 69 41 0.0 2.0 0.00 0.00 0.00 94 1015.6
20260510034521 69 41 0.0 2.0 0.00 0.00 0.00 94 1015.6
20260510034009 69 41 0.0 2.0 0.00 0.01 0.00 94 1015.6
20260510033511 69 41 0.0 2.0 0.00 0.01 0.00 94 1015.5
20260510033023 69 41 1.0 2.0 0.00 0.01 0.00 94 1015.5
20260510032507 69 202 0.0 3.0 0.00 0.01 0.00 94 1015.7
20260510032004 69 202 1.0 3.0 0.00 0.01 0.00 94 1015.8
20260510031512 69 209 2.0 2.0 0.00 0.01 0.00 94 1015.8
20260510031003 69 252 2.0 2.0 0.00 0.01 0.00 94 1015.6
20260510030505 69 127 0.0 2.0 0.00 0.01 0.00 94 1015.5
20260510030014 69 68 1.0 2.0 0.00 0.01 0.00 94 1015.3
20260510025508 69 1 1.0 2.0 0.00 0.01 0.00 94 1015.2
20260510025009 69 8 1.0 2.0 0.00 0.01 0.00 94 1015.1
20260510024518 69 190 0.0 2.0 0.00 0.01 0.00 94 1015.2
20260510024007 69 190 0.0 2.0 0.00 0.01 0.00 94 1015.2
20260510023507 69 190 0.0 2.0 0.00 0.01 0.00 94 1015.2
20260510023024 69 190 0.0 1.0 0.00 0.01 0.00 94 1015.0
20260510022510 69 190 0.0 1.0 0.00 0.01 0.00 94 1015.0
20260510022010 69 190 0.0 1.0 0.00 0.01 0.00 94 1014.9
20260510021526 69 190 0.0 0.0 0.00 0.01 0.00 94 1015.0
20260510021004 69 190 0.0 2.0 0.00 0.01 0.00 94 1014.9
20260510020504 69 190 0.0 2.0 0.00 0.02 0.00 94 1014.8
20260510020012 69 190 0.0 2.0 0.00 0.02 0.00 94 1014.9
20260510015504 69 190 1.0 2.0 0.00 0.02 0.00 94 1014.9
20260510015006 69 183 0.0 2.0 0.00 0.02 0.00 94 1014.8
20260510014519 69 183 0.0 2.0 0.00 0.02 0.00 94 1014.8
20260510014009 69 207 0.0 2.0 0.00 0.02 0.00 94 1014.8
20260510013509 69 163 1.0 3.0 0.00 0.02 0.00 94 1014.8
20260510012503 69 197 2.0 3.0 0.00 0.02 0.00 93 1014.9
20260510012004 69 203 2.0 3.0 0.00 0.02 0.00 94 1014.9
20260510011507 69 218 1.0 2.0 0.00 0.02 0.00 93 1014.9
20260510011001 69 356 0.0 2.0 0.00 0.02 0.00 93 1014.7
20260510010501 69 354 1.0 2.0 0.00 0.02 0.00 93 1014.6
20260510010001 69 333 1.0 2.0 0.00 0.02 0.00 93 1014.7
20260510005503 69 278 1.0 2.0 0.00 0.02 0.00 93 1014.6
20260510005003 69 255 0.0 2.0 0.00 0.02 0.00 93 1014.5
20260510004503 69 255 0.0 2.0 0.00 0.02 0.00 93 1014.4
20260510004005 69 255 0.0 2.0 0.00 0.02 0.00 93 1014.5
20260510003502 69 242 0.0 2.0 0.00 0.02 0.00 93 1014.5
20260510003004 69 231 1.0 2.0 0.00 0.02 0.00 93 1014.5
20260510002502 69 222 2.0 2.0 0.00 0.02 0.00 93 1014.5
20260510001006 69 155 1.0 2.0 0.00 0.02 0.00 93 1014.5
20260510000504 69 159 0.0 3.0 0.00 0.02 0.00 93 1014.3
20260509235501 69 181 3.0 4.0 0.00 0.02 0.00 93 1014.5
20260509235003 69 139 2.0 5.0 0.00 0.02 0.00 93 1014.5
20260509234502 70 162 2.0 5.0 0.00 0.02 0.00 93 1014.5
20260509234003 70 186 3.0 5.0 0.00 0.02 0.00 93 1014.6
20260509233507 70 198 4.0 4.0 0.00 0.02 0.00 93 1014.7
20260509233003 70 198 3.0 4.0 0.00 0.02 0.00 93 1014.7
20260509232503 70 219 3.0 3.0 0.00 0.02 0.00 93 1014.8
20260509232004 70 191 2.0 3.0 0.00 0.02 0.00 93 1014.6
20260509231503 70 235 1.0 3.0 0.00 0.02 0.00 93 1014.7
20260509231003 70 184 2.0 3.0 0.00 0.02 0.00 93 1014.6
20260509225504 70 188 2.0 3.0 0.00 0.02 0.00 93 1014.7
20260509225010 70 239 1.0 3.0 0.00 0.02 0.00 93 1014.6
20260509224502 70 226 1.0 3.0 0.00 0.02 0.00 93 1014.7
20260509224002 70 269 1.0 3.0 0.00 0.02 0.00 93 1014.6
20260509223505 70 309 1.0 2.0 0.00 0.02 0.00 93 1014.5
20260509223003 70 260 0.0 2.0 0.00 0.02 0.00 93 1014.4
20260509221009 70 180 1.0 2.0 0.00 0.02 0.00 93 1014.1
20260509220503 70 182 1.0 2.0 0.00 0.02 0.00 93 1014.1
20260509215504 70 181 0.0 3.0 0.00 0.02 0.00 93 1014.1
20260509214007 69 168 1.0 2.0 0.00 0.02 0.00 93 1014.0
20260509213503 69 108 0.0 4.0 0.00 0.02 0.00 92 1014.0
20260509213004 70 75 2.0 4.0 0.00 0.02 0.00 93 1013.9
20260509212502 70 80 0.0 3.0 0.00 0.02 0.00 93 1014.0
20260509212007 70 169 1.0 3.0 0.00 0.02 0.00 93 1013.9
20260509204514 69 15 3.0 7.0 0.00 0.02 0.00 92 1014.1
20260509204007 69 1 4.0 6.0 0.00 0.02 0.00 92 1014.2
20260509202002 69 355 3.0 6.0 0.00 0.02 0.00 93 1014.4
20260509201503 69 16 3.0 8.0 0.00 0.02 0.00 93 1014.4
20260509201004 69 355 6.0 8.0 0.00 0.02 0.00 92 1014.6
20260509200503 69 3 5.0 6.0 0.00 0.02 0.00 92 1014.6
20260509194008 69 353 7.0 11.0 0.00 0.02 0.00 91 1014.7
20260509191008 70 326 5.0 12.0 0.00 0.02 0.00 91 1014.7
20260509190503 70 352 5.0 16.0 0.00 0.02 0.00 91 1014.6
20260509190006 70 359 8.0 20.0 0.00 0.02 0.00 90 1014.6
20260509185503 71 359 12.0 20.0 0.00 0.02 0.00 89 1014.4
20260509185002 73 360 12.0 19.0 0.00 0.02 0.00 88 1014.4
20260509183503 77 320 4.0 5.0 0.00 0.02 0.00 80 1014.1
20260509182507 78 321 3.0 7.0 0.00 0.02 0.00 80 1014.1
20260509181517 78 311 4.0 7.0 0.00 0.02 0.00 79 1014.2
20260509181008 78 287 3.0 7.0 0.00 0.02 0.00 79 1014.3
20260509180507 78 325 2.0 8.0 0.00 0.02 0.00 79 1014.3
20260509175503 79 330 2.0 6.0 0.00 0.02 0.00 77 1014.3
20260509175006 79 319 3.0 5.0 0.00 0.02 0.00 77 1014.4
20260509174506 78 272 3.0 5.0 0.00 0.02 0.00 77 1014.3
20260509174004 78 193 3.0 5.0 0.00 0.02 0.00 79 1014.5
20260509173503 78 180 3.0 8.0 0.00 0.02 0.00 79 1014.6
20260509171517 78 210 4.0 8.0 0.00 0.02 0.00 78 1014.7
20260509171006 78 198 4.0 8.0 0.00 0.02 0.00 78 1014.7
20260509164003 78 189 6.0 8.0 0.00 0.02 0.00 79 1014.5
20260509163503 78 187 6.0 7.0 0.00 0.02 0.00 79 1014.6
20260509163007 77 149 1.0 3.0 0.00 0.02 0.00 81 1014.7
20260509162502 76 290 1.0 2.0 0.00 0.02 0.00 80 1014.7
20260509162001 76 210 1.0 3.0 0.00 0.02 0.00 80 1014.8
20260509161503 76 333 2.0 5.0 0.00 0.02 0.00 81 1014.8
20260509161001 76 6 2.0 5.0 0.00 0.02 0.00 80 1014.9
20260509160504 76 60 3.0 7.0 0.00 0.02 0.00 80 1015.0
20260509160003 76 322 3.0 7.0 0.00 0.02 0.00 81 1015.0
20260509155503 75 216 2.0 4.0 0.00 0.02 0.00 81 1015.1
20260509155003 75 125 1.0 4.0 0.00 0.02 0.00 81 1014.9
20260509154507 75 290 2.0 5.0 0.00 0.02 0.00 81 1014.8
20260509154003 75 51 0.0 5.0 0.00 0.02 0.00 82 1014.8
20260509153503 74 105 2.0 6.0 0.00 0.02 0.00 83 1014.7
20260509153020 74 187 1.0 6.0 0.00 0.02 0.00 82 1014.6
20260509152504 74 148 2.0 5.0 0.00 0.02 0.00 84 1014.7
20260509152008 73 103 2.0 5.0 0.00 0.02 0.00 85 1014.7
20260509151508 72 152 2.0 4.0 0.00 0.02 0.00 85 1015.0
20260509151002 72 72 0.0 3.0 0.00 0.02 0.00 86 1015.2
20260509150503 72 51 2.0 3.0 0.00 0.02 0.00 87 1015.3
20260509150003 71 6 1.0 3.0 0.00 0.02 0.00 87 1015.3
20260509145503 71 68 1.0 4.0 0.00 0.02 0.00 87 1015.4
20260509145003 71 49 2.0 7.0 0.00 0.02 0.00 87 1015.5
20260509144512 71 17 4.0 7.0 0.00 0.02 0.00 88 1015.8
20260509144007 71 360 3.0 6.0 0.00 0.02 0.00 87 1015.9
20260509143504 71 344 4.0 6.0 0.00 0.02 0.00 87 1015.7
20260509143008 71 1 3.0 5.0 0.00 0.02 0.00 87 1015.6
20260509142508 71 1 3.0 4.0 0.00 0.02 0.00 87 1015.5
20260509142008 71 356 2.0 3.0 0.00 0.02 0.00 87 1015.5
20260509141516 71 335 2.0 3.0 0.00 0.02 0.00 87 1015.3
20260509141008 71 249 1.0 2.0 0.00 0.02 0.00 88 1015.3
20260509140503 71 302 1.0 2.0 0.00 0.02 0.00 89 1015.3
20260509140003 70 295 0.0 3.0 0.00 0.02 0.00 89 1015.3
20260509135502 70 307 0.0 3.0 0.00 0.02 0.00 89 1015.4
20260509135006 70 261 1.0 3.0 0.00 0.02 0.00 90 1015.3
20260509134503 70 355 2.0 5.0 0.00 0.02 0.00 91 1015.2
20260509133507 69 351 3.0 4.0 0.00 0.02 0.00 92 1015.2
20260509133007 69 359 2.0 3.0 0.00 0.02 0.00 92 1015.0
20260509132003 68 356 2.0 3.0 0.00 0.02 0.00 93 1015.0
20260509131512 68 360 1.0 3.0 0.00 0.02 0.00 93 1015.0
20260509131006 68 327 2.0 3.0 0.00 0.02 0.00 93 1015.1
20260509130504 68 274 1.0 3.0 0.00 0.02 0.00 93 1015.0
20260509125507 68 330 1.0 3.0 0.00 0.02 0.00 93 1014.8
20260509124505 68 356 0.0 2.0 0.00 0.02 0.00 93 1014.5
20260509124004 67 37 2.0 2.0 0.00 0.02 0.00 93 1014.3
20260509123503 67 131 0.0 2.0 0.00 0.02 0.00 93 1014.3
20260509123004 67 158 0.0 2.0 0.00 0.02 0.00 94 1014.2
20260509122504 67 297 0.0 2.0 0.00 0.02 0.00 93 1014.3
20260509122011 67 296 1.0 2.0 0.00 0.02 0.00 94 1014.4
20260509121512 67 345 1.0 2.0 0.00 0.02 0.00 93 1014.5
20260509121005 67 340 1.0 2.0 0.00 0.02 0.00 94 1014.5
20260509120507 67 359 1.0 2.0 0.00 0.02 0.00 94 1014.6
20260509120010 66 347 2.0 2.0 0.00 0.02 0.00 94 1014.5
20260509115506 66 359 0.0 2.0 0.00 0.02 0.00 93 1014.5
20260509115009 66 327 1.0 3.0 0.00 0.02 0.00 93 1014.6
20260509113503 66 289 1.0 2.0 0.00 0.02 0.00 94 1014.6
20260509113012 66 353 1.0 2.0 0.00 0.02 0.00 94 1014.4
20260509112503 66 1 2.0 3.0 0.00 0.02 0.00 94 1014.3
20260509112005 66 1 1.0 4.0 0.00 0.02 0.00 94 1014.3
20260509111507 66 359 2.0 4.0 0.00 0.02 0.00 93 1014.2
20260509111003 66 1 2.0 4.0 0.00 0.02 0.00 93 1014.2
20260509110502 66 359 3.0 4.0 0.00 0.02 0.00 93 1014.1